Location: Clason Point
(40.8136°N, 73.8618°W)
Time: 15:27:44
(UTC+00:00)

CSL-04 Rocket - Pass Details

Date: 16 September 2019
Orbit: 806 x 860 km, 99.0° (Epoch: 16 October)

Event Time Altitude Azimuth Distance (km) Brightness Sun altitude
Rises 23:41:41 0° 175° (S) 3,375 6.7 -8.1°
Reaches altitude 10° 23:44:03 10° 180° (S) 2,453 6.0 -8.5°
Maximum altitude 23:49:25 58° 259° (WSW) 984 4.4 -9.5°
Drops below altitude 10° 23:54:53 10° 338° (NNW) 2,497 6.6 -10.5°
Sets 23:57:20 0° 343° (NNW) 3,441 7.3 -11.0°
